Tampa Macdill AFB, FL

8:39 PM EDT on October 22, 2019 (GMT -0400)
MacDill Air Force Base

Weather History for KMCF - August, 2019

Change the Weather History Date:

Sunday, August 25, 2019

  Actual Average Record
Temperature  
Mean Temperature 84 °F -  
Max Temperature 93 °F 88 °F 95 °F (2001)
Min Temperature 75 °F 73 °F 71 °F (1996)
Cooling Degree Days 18    
Growing Degree Days 34 (Base 50)    
Moisture  
Dew Point 75 °F    
Average Humidity 76    
Maximum Humidity 94    
Minimum Humidity 52    
Precipitation  
Precipitation 0.40 in - - ()
Sea Level Pressure  
Sea Level Pressure 29.95 in    
Wind  
Wind Speed 5 mph (East)    
Max Wind Speed 16 mph    
Max Gust Speed 28 mph    
Visibility 10 miles    
Events Rain , Thunderstorm    
Averages and records for this station are not official NWS values.
T = Trace of Precipitation, MM = Missing Value Source: NWS Daily Summary

Daily Weather History Graph

Daily Weather History Graph

Search for Another Location

Airport or City:

Astronomy

Aug. 25, 2019 Rise Set
Actual Time 7:05 AM EDT 7:58 PM EDT
Civil Twilight 6:41 AM EDT 8:22 PM EDT
Nautical Twilight 6:12 AM EDT 8:51 PM EDT
Astronomical Twilight 5:43 AM EDT 9:20 PM EDT
Moon 1:54 AM EDT (8/25) 4:01 PM EDT (8/25)
Length of Visible Light 13h 41m
Length of Day
12h 53m
Waning Crescent, 29% of the Moon is Illuminated
Aug 25
Waning Crescent
Aug 30
New
Sep 5
First Quarter
Sep 14
Full
Sep 21
Last Quarter

Hourly Weather History & Observations

Time (EDT) Temp. Heat Index Dew Point Humidity Pressure Visibility Wind Dir Wind Speed Gust Speed Precip Events Conditions
12:56 AM 82.2 °F 89.1 °F 75.0 °F 79% 29.96 in 10.0 mi ESE 4.6 mph - N/A   Clear
1:56 AM 79.3 °F - 74.7 °F 86% 29.94 in 10.0 mi ENE 3.5 mph - N/A   Clear
2:11 AM 78.8 °F - 75.2 °F 89% 29.93 in 10.0 mi East 5.8 mph - N/A Rain , Thunderstorm Light Rain
2:30 AM 78.8 °F - 75.2 °F 89% 29.93 in 10.0 mi East 4.6 mph - N/A   Clear
2:56 AM 80.1 °F 84.6 °F 74.3 °F 82% 29.93 in 10.0 mi SE 4.6 mph - 0.00 in   Clear
3:56 AM 79.2 °F - 74.5 °F 86% 29.92 in 10.0 mi ESE 3.5 mph - N/A   Clear
4:56 AM 77.2 °F - 73.9 °F 90% 29.92 in 10.0 mi Calm Calm - N/A   Clear
5:56 AM 75.7 °F - 72.9 °F 91% 29.92 in 10.0 mi Calm Calm - N/A   Clear
6:56 AM 75.9 °F - 73.4 °F 92% 29.94 in 10.0 mi NE 3.5 mph - N/A   Clear
7:56 AM 78.8 °F - 75.6 °F 90% 29.95 in 10.0 mi ENE 5.8 mph - N/A   Clear
8:56 AM 82.0 °F 88.6 °F 74.8 °F 79% 29.97 in 10.0 mi ENE 8.1 mph - N/A   Clear
9:56 AM 84.7 °F 93.2 °F 75.4 °F 73% 29.98 in 10.0 mi East 6.9 mph - N/A   Clear
10:56 AM 86.5 °F 94.6 °F 74.1 °F 66% 29.99 in 10.0 mi Calm Calm - N/A   Partly Cloudy
11:56 AM 88.7 °F 99.3 °F 75.4 °F 65% 29.98 in 10.0 mi NNE 4.6 mph - N/A   Partly Cloudy
12:56 PM 90.1 °F 98.9 °F 73.8 °F 58% 29.97 in 10.0 mi East 9.2 mph - N/A   Scattered Clouds
1:56 PM 91.4 °F 101.3 °F 74.5 °F 57% 29.97 in 10.0 mi ENE 5.8 mph - N/A   Clear
2:56 PM 91.9 °F 99.5 °F 71.8 °F 52% 29.94 in 10.0 mi East 4.6 mph - N/A Thunderstorm Clear
3:56 PM 92.5 °F 100.7 °F 72.7 °F 52% 29.92 in 10.0 mi East 8.1 mph - N/A   Clear
4:56 PM 92.5 °F 103.2 °F 74.5 °F 56% 29.90 in 10.0 mi Calm Calm - N/A   Clear
5:56 PM 92.5 °F 100.7 °F 72.7 °F 52% 29.89 in 10.0 mi West 3.5 mph - N/A   Clear
6:56 PM 92.3 °F 102.2 °F 73.8 °F 55% 29.90 in 10.0 mi WNW 4.6 mph - N/A   Mostly Cloudy
7:56 PM 87.6 °F 98.2 °F 75.7 °F 68% 29.90 in 10.0 mi North 4.6 mph - N/A   Clear
8:56 PM 86.5 °F 98.8 °F 77.9 °F 75% 29.92 in 10.0 mi North 6.9 mph - N/A   Mostly Cloudy
9:56 PM 85.3 °F 96.7 °F 77.5 °F 78% 29.95 in 10.0 mi North 3.5 mph - N/A   Partly Cloudy
10:33 PM 86.0 °F 95.1 °F 75.2 °F 70% 29.95 in 10.0 mi East 12.7 mph - N/A   Mostly Cloudy
10:40 PM 86.0 °F 95.1 °F 75.2 °F 70% 29.96 in 10.0 mi ESE 12.7 mph - N/A Thunderstorm Thunderstorm
10:42 PM 86.0 °F 95.1 °F 75.2 °F 70% 29.96 in 10.0 mi South 16.1 mph 27.6 mph N/A Thunderstorm Thunderstorm
10:52 PM 84.2 °F 94.1 °F 77.0 °F 79% 29.97 in 10.0 mi South 16.1 mph 27.6 mph N/A Rain , Thunderstorm Light Thunderstorms and Rain
10:56 PM 84.2 °F 93.4 °F 76.5 °F 77% 29.97 in 10.0 mi South 13.8 mph 21.9 mph 0.01 in Rain , Thunderstorm Light Thunderstorms and Rain
10:58 PM 84.2 °F 94.1 °F 77.0 °F 79% 29.96 in 10.0 mi South 11.5 mph 21.9 mph N/A Rain , Thunderstorm Thunderstorms and Rain
11:02 PM 82.4 °F 90.9 °F 77.0 °F 84% 29.96 in 8.0 mi South 9.2 mph - N/A Rain Rain
11:09 PM 82.4 °F 90.9 °F 77.0 °F 84% 29.97 in 10.0 mi SSE 6.9 mph - N/A Rain , Thunderstorm Light Thunderstorms and Rain
11:33 PM 80.6 °F 87.1 °F 77.0 °F 89% 29.98 in 6.0 mi East 6.9 mph 18.4 mph N/A Rain , Thunderstorm Thunderstorms and Rain
11:38 PM 80.6 °F 86.2 °F 75.2 °F 84% 29.98 in 4.0 mi NE 4.6 mph - N/A Rain , Thunderstorm Heavy Thunderstorms and Rain
11:53 PM 78.8 °F - 77.0 °F 94% 29.97 in 6.0 mi North 5.8 mph - N/A Rain , Thunderstorm Heavy Thunderstorms and Rain
11:55 PM 78.8 °F - 75.2 °F 89% 29.97 in 8.0 mi North 6.9 mph - N/A Rain Light Rain
11:56 PM 79.2 °F - 75.9 °F 90% 29.97 in 8.0 mi North 6.9 mph - 0.39 in Rain Light Rain